Theta_e
316 316 316 316 316 316 317 317 317 317 318 318 318 318 317 318 318 319 319 319 320 321 321 319 321 321 313 301 300 312 325 318 313 311 305 303 298 297 293 294 297 294 295 297 296 295 293
315 315 315 316 316 315 316 316 316 316 317 318 318 317 317 317 317 318 318 319 320 320 321 320 321 319 304 294 311 312 309 310 309 308 303 303 299 300 297 296 295 296 296 295 296 295 294
315 315 314 314 315 315 315 315 315 315 316 317 317 316 316 316 317 317 318 318 319 319 320 319 320 312 301 299 309 309 308 307 307 306 303 304 303 298 297 295 299 297 293 294 293 294 293
316 315 315 314 314 314 315 315 314 315 315 316 316 315 315 315 316 316 317 317 318 318 318 319 320 304 295 309 307 307 308 306 307 307 305 304 303 299 297 297 296 291 290 285 292 295 294
318 317 316 315 314 314 314 315 314 314 315 315 315 314 314 314 315 316 316 317 317 318 318 318 304 300 295 313 304 306 305 304 305 305 304 306 301 294 294 288 284 285 280 283 289 295 293
319 318 318 316 316 314 314 314 314 314 314 314 314 313 313 314 315 316 316 317 315 312 311 307 303 296 299 299 303 304 304 306 302 301 300 297 292 288 287 284 278 281 281 283 285 292 292
321 320 319 318 317 316 315 314 314 313 313 313 313 312 312 313 315 315 309 302 299 298 299 294 296 296 300 304 306 303 303 303 301 296 290 292 286 283 285 287 286 284 282 282 286 292 290
321 321 320 319 318 317 316 315 314 313 313 312 312 311 311 313 313 314 306 298 299 299 292 299 299 299 301 302 297 300 303 296 294 289 290 286 284 289 292 291 288 286 283 282 287 291 290
322 321 321 320 318 318 317 315 314 313 313 312 311 311 311 312 312 305 300 299 306 303 293 296 299 298 298 301 295 296 299 296 292 289 287 284 288 293 291 288 287 283 282 282 283 286 286
323 323 322 321 319 319 318 316 314 313 312 311 310 310 311 312 303 296 297 305 306 304 286 290 294 297 299 300 294 300 297 296 292 289 289 287 291 290 288 288 287 281 286 286 285 281 278
324 323 322 322 321 320 319 317 315 313 312 311 310 309 310 310 297 296 301 305 304 298 276 292 293 301 297 295 296 296 298 295 290 290 287 284 287 286 287 288 287 285 288 285 284 280 278
324 324 322 322 321 320 319 318 316 314 311 311 310 309 309 299 298 300 304 303 301 286 276 288 293 291 290 292 292 295 294 294 292 288 287 286 289 288 287 289 288 289 285 284 281 279 274
324 323 323 322 321 320 319 318 317 314 312 310 309 308 306 301 295 302 302 296 284 279 288 287 288 290 288 288 289 289 288 285 283 280 280 284 285 288 290 285 288 285 279 276 275 274 275
324 323 323 322 321 320 320 319 317 315 312 310 308 308 302 302 302 302 296 287 279 285 285 290 289 288 286 288 286 287 285 282 284 283 281 279 279 285 287 284 282 281 280 277 275 274 275
320 320 322 322 321 321 320 319 317 315 311 308 306 296 297 297 301 298 290 279 280 284 289 288 288 283 283 286 285 284 283 283 283 284 280 278 279 284 284 284 284 282 279 281 278 274 272
318 319 319 320 322 321 320 320 318 314 309 306 292 293 294 299 299 294 286 284 285 290 290 288 283 285 282 283 282 282 282 283 284 284 282 281 277 281 283 284 283 283 284 277 276 272 271
316 318 318 319 320 320 320 320 318 313 307 304 295 287 294 300 297 289 280 281 288 291 291 288 285 284 284 283 282 281 282 283 285 283 282 281 279 277 279 279 279 279 278 278 277 275 271
314 315 317 317 318 319 319 319 318 311 305 300 296 288 297 300 288 282 282 287 293 289 290 289 287 286 284 284 282 281 282 282 284 284 281 281 278 275 277 277 278 278 278 278 274 273 273
313 315 315 316 316 317 317 318 316 309 307 298 292 293 299 298 283 284 285 288 289 288 288 288 287 288 286 284 282 283 283 284 285 284 281 282 277 272 276 276 276 275 277 278 276 274 273
311 312 313 313 314 314 316 316 313 309 305 300 293 290 294 294 291 287 286 286 286 289 289 289 288 288 286 284 284 282 282 283 283 284 289 285 277 277 276 277 277 275 276 276 276 269 274
311 311 311 311 311 312 313 315 311 308 306 299 293 290 292 286 287 287 288 289 287 285 288 289 286 287 285 282 282 282 282 280 282 287 282 280 276 274 276 278 277 277 277 276 274 276 273
311 310 309 309 309 311 312 314 310 308 305 298 290 289 291 288 290 287 287 287 288 287 287 285 284 287 286 283 284 281 282 280 280 279 279 278 275 275 273 277 276 275 277 277 277 277 274
311 311 309 309 308 309 310 312 309 307 305 295 292 293 295 291 288 286 285 287 288 289 289 287 287 287 284 286 284 281 281 281 281 279 277 276 275 273 271 273 273 272 272 275 275 274 274
309 311 310 309 309 309 309 311 309 307 305 298 294 293 291 287 287 288 289 288 288 289 286 285 285 285 283 284 283 282 280 279 278 276 279 275 275 275 269 271 264 271 271 270 270 268 265
309 310 310 309 310 309 309 309 310 308 305 297 295 295 292 287 288 287 287 287 287 285 285 283 283 283 284 283 279 278 276 275 274 274 275 277 277 273 270 268 271 268 270 270 268 268 265
306 307 309 309 310 309 309 308 309 309 307 296 294 297 295 289 286 290 287 286 283 280 280 282 284 285 283 280 279 276 274 275 270 271 275 276 276 276 271 269 267 268 271 272 266 265 268
305 306 307 308 309 309 309 308 308 310 307 297 292 294 294 289 284 286 286 284 287 284 281 280 280 280 282 278 277 276 275 275 271 270 269 271 272 272 272 270 270 270 272 272 265 268 270
304 305 306 306 308 309 309 308 308 309 306 298 289 292 293 286 281 283 284 283 283 284 279 280 280 280 278 277 278 277 275 275 274 272 270 271 271 269 271 269 267 272 271 269 270 270 271
305 306 307 307 307 308 308 308 309 308 303 296 287 290 289 284 279 283 284 284 283 283 283 282 281 279 281 279 279 279 274 272 272 270 274 272 275 272 273 273 273 274 273 272 272 271 271
Wind_Speed
6 7 8 9 10 11 12 13 14 14 14 14 14 14 14 13 12 12 12 11 10 9 8 7 7 8 2 4 1 4 10 9 5 5 4 3 5 2 4 3 3 5 3 7 6 9 8
5 6 6 7 8 10 11 12 12 13 14 15 15 15 15 15 14 13 12 11 10 9 8 7 7 8 1 1 2 6 7 5 4 4 4 5 2 2 5 3 4 3 6 6 3 5 5
3 4 5 6 7 8 10 11 11 12 13 15 16 15 15 16 16 14 12 11 10 9 8 8 7 3 5 2 2 7 6 3 4 1 1 1 1 2 2 5 6 7 5 2 2 3 4
2 1 4 5 6 7 8 10 11 12 13 14 15 16 16 16 17 16 14 12 9 8 8 7 5 2 1 2 2 4 6 2 5 2 1 2 1 4 4 3 4 4 5 2 2 5 2
5 2 1 5 7 6 7 8 10 11 12 13 15 16 17 17 17 17 15 13 8 7 8 8 1 2 0 2 2 4 2 3 5 3 2 2 3 4 4 6 5 4 3 3 2 7 4
7 6 4 2 5 8 8 9 8 10 11 12 14 15 17 18 18 16 17 6 7 8 1 2 1 4 1 1 2 3 3 3 2 3 4 4 6 4 4 4 5 6 3 3 4 7 5
9 7 7 5 3 6 9 9 10 9 11 12 12 14 15 17 16 15 10 4 5 4 6 1 1 1 1 2 1 3 3 4 1 5 3 3 5 4 7 5 4 4 4 4 3 5 5
10 10 8 8 6 4 6 9 10 11 11 12 12 13 14 15 17 15 1 3 1 2 2 1 1 1 1 2 1 3 5 1 1 3 3 6 3 4 3 4 3 3 2 3 1 3 4
12 12 9 9 7 7 5 5 9 11 12 12 13 13 14 14 15 4 3 2 3 3 1 2 2 2 2 2 2 2 3 0 2 3 4 5 1 2 2 1 3 1 4 3 3 1 1
13 14 11 11 10 8 7 6 5 8 10 13 13 14 14 17 5 2 2 4 3 1 5 4 2 2 1 2 2 1 0 1 0 6 6 2 1 3 2 3 4 2 4 2 3 3 5
15 14 13 12 12 10 8 7 7 4 8 11 13 14 14 5 3 2 2 4 3 3 4 1 2 0 1 3 3 1 0 1 3 4 5 5 5 3 3 3 1 4 2 2 2 2 4
15 14 14 13 12 12 11 9 7 6 4 7 11 14 14 4 2 2 1 2 3 8 8 2 3 2 2 1 1 1 2 2 1 2 2 1 1 1 1 2 2 4 4 6 5 3 1
14 14 14 14 13 12 12 10 8 6 5 4 8 11 9 1 2 2 2 4 7 5 1 4 4 3 2 4 1 3 2 1 4 5 3 2 1 1 1 2 4 3 5 3 5 3 7
11 13 14 14 14 13 13 11 10 7 4 5 7 8 4 2 2 4 4 6 3 5 6 2 4 3 5 6 2 3 2 2 3 3 3 5 5 3 2 1 4 3 5 5 6 3 5
11 10 11 14 16 15 14 13 11 8 3 4 8 1 2 3 3 2 6 3 10 8 5 8 3 3 4 3 3 3 6 4 3 6 7 5 2 1 3 2 2 2 3 1 1 1 2
10 11 10 9 13 16 17 16 13 10 6 3 2 2 3 4 5 5 5 8 7 4 4 3 9 6 7 6 6 6 7 2 6 2 2 4 1 1 1 2 2 3 3 3 3 3 6
9 9 9 10 11 13 13 15 15 13 10 6 1 0 1 4 3 4 5 9 6 4 5 8 9 6 7 8 8 5 6 2 5 5 2 4 3 1 1 6 7 2 2 2 3 4 5
15 14 10 10 11 12 12 15 16 18 15 7 1 3 1 1 2 2 5 8 4 6 2 3 3 5 9 9 8 6 9 2 4 7 8 5 5 5 7 1 1 1 4 6 6 5 4
13 14 14 10 10 4 6 9 18 20 13 6 5 1 2 1 5 4 5 4 4 5 6 7 8 5 4 8 4 6 5 1 1 5 7 7 2 1 5 2 1 4 6 5 4 3 8
12 11 12 10 10 7 6 6 19 19 15 5 5 2 1 2 2 3 4 6 6 2 3 3 5 4 4 5 3 7 5 3 3 3 5 3 4 7 8 4 6 6 7 7 7 4 6
12 12 11 10 10 10 7 12 21 21 15 3 2 3 3 3 4 7 9 6 4 6 2 1 1 6 7 6 5 6 4 3 1 4 4 5 7 4 4 5 3 5 6 9 10 11 11
13 11 10 9 9 9 9 12 22 22 9 2 5 5 2 2 2 2 9 5 7 1 5 5 5 3 3 5 8 10 9 5 6 2 5 0 2 3 3 4 5 6 9 12 13 12 8
14 12 10 9 6 6 8 11 22 23 16 3 1 1 1 5 3 5 4 6 3 4 2 3 3 2 7 4 4 3 4 4 7 10 7 7 6 4 4 3 6 9 14 16 3 1 4
15 15 12 10 7 4 4 6 21 25 10 4 3 1 3 3 5 6 7 2 6 5 3 2 3 5 1 9 8 5 9 9 8 6 2 7 7 3 2 2 4 4 2 3 3 2 2
14 11 12 11 9 5 4 5 18 24 15 3 3 4 2 3 3 3 7 5 4 1 3 1 4 4 4 3 4 4 3 2 2 5 4 2 5 4 3 4 7 1 4 6 6 6 6
13 12 10 9 9 9 7 6 6 23 17 2 2 1 3 1 5 2 3 4 4 2 1 1 1 5 3 3 3 5 7 4 4 1 4 3 4 3 3 3 7 5 3 3 3 6 7
12 14 15 12 11 12 10 9 9 15 19 4 1 2 2 4 1 1 3 4 4 3 2 3 5 2 3 3 4 4 4 3 6 8 6 4 2 8 5 4 9 3 5 4 7 6 6
14 14 14 15 14 12 12 12 12 12 20 6 2 2 1 2 2 3 2 3 2 3 5 5 4 2 2 4 4 4 3 4 2 4 6 8 8 5 4 4 11 6 5 6 3 3 6
16 17 16 15 15 16 16 15 14 13 22 9 3 1 3 6 4 3 4 5 4 4 3 5 2 3 4 4 4 2 3 2 2 3 1 5 5 7 9 6 1 10 2 3 4 7 5
Wind_Direction
49 50 44 32 23 15 11 9 2 356 354 350 351 352 348 342 342 346 341 336 329 325 322 328 330 336 300 43 237 290 330 333 347 1 45 12 46 21 100 85 68 84 128 56 87 79 72
61 38 36 36 27 16 10 10 1 356 355 351 350 348 345 338 338 338 337 335 327 319 313 321 327 327 237 199 313 308 333 338 13 35 18 38 97 347 96 74 82 99 98 131 59 87 96
89 38 22 18 24 20 12 6 2 357 354 354 346 346 344 337 333 330 333 327 320 311 310 317 329 339 54 146 304 320 340 293 336 36 83 50 297 129 110 97 150 138 88 71 150 160 137
160 75 360 360 8 10 14 6 1 358 356 351 346 343 342 336 329 326 329 315 308 301 305 305 322 62 105 298 316 340 342 351 351 347 125 265 313 96 85 127 63 81 65 93 219 154 158
225 286 339 340 341 352 355 8 4 357 353 351 349 343 339 335 329 326 322 313 296 293 290 293 289 98 249 312 2 308 345 331 306 310 327 316 52 89 44 88 35 8 192 194 299 203 136
222 258 248 275 323 331 340 346 3 353 351 351 349 345 337 335 330 328 317 290 304 318 264 257 306 41 317 261 294 334 310 344 357 345 22 48 47 72 42 82 201 189 201 219 215 204 169
250 226 245 255 270 314 325 336 339 353 349 349 346 343 338 333 333 336 343 12 17 328 39 215 202 176 97 314 45 359 7 354 14 45 119 22 81 197 212 190 172 148 185 199 237 183 140
249 245 222 232 261 268 305 320 330 338 344 342 343 340 339 335 333 329 5 81 146 256 309 231 180 82 121 123 34 323 5 83 113 157 112 32 210 208 162 166 168 185 197 262 327 133 158
238 239 231 230 234 259 269 295 320 329 336 337 339 338 336 335 327 36 60 129 325 319 141 248 213 193 204 126 172 280 357 55 178 142 169 155 230 146 179 184 167 104 171 202 202 65 312
234 237 225 224 224 235 251 274 291 318 330 331 337 336 336 327 66 317 40 312 329 305 54 246 237 246 120 108 272 219 124 182 118 184 156 203 150 162 159 191 140 202 181 157 146 101 232
239 237 234 227 214 215 229 247 276 298 321 330 333 333 334 338 175 88 240 305 310 48 8 174 176 15 108 162 147 254 351 53 182 179 105 251 161 164 179 206 184 217 112 101 114 118 24
236 237 238 235 229 221 207 231 243 274 299 321 329 333 336 41 57 156 323 0 39 47 258 193 134 163 117 247 237 95 39 45 44 85 44 109 13 71 201 74 44 133 87 39 52 93 312
240 241 236 235 231 227 225 204 223 235 272 311 326 329 325 280 205 153 87 51 45 148 282 199 200 160 196 198 229 172 174 197 166 91 233 5 228 26 77 105 15 89 68 323 340 357 231
272 244 246 240 235 228 226 216 208 224 247 310 316 320 283 252 187 130 70 59 205 231 204 137 137 131 181 156 230 171 114 270 231 110 122 167 307 156 22 69 193 171 155 165 251 231 277
334 345 262 241 237 229 225 221 209 192 189 316 326 2 267 229 167 58 82 117 210 209 163 146 79 158 223 198 199 156 200 210 194 178 180 154 263 23 57 34 85 182 194 175 75 47 26
319 315 313 331 267 235 222 214 202 176 144 52 59 349 244 144 131 58 90 224 217 201 142 139 183 165 191 196 166 184 190 190 175 164 183 193 154 250 215 141 55 166 163 72 4 253 260
304 303 303 304 289 253 238 217 196 160 131 91 11 41 296 108 71 67 193 226 218 198 181 168 194 170 208 180 181 204 208 196 180 163 152 150 124 209 98 203 182 125 214 92 121 167 204
304 303 300 313 305 266 235 225 182 151 131 97 78 237 183 160 141 232 195 199 174 184 180 199 163 176 183 171 180 214 206 231 181 158 166 185 141 195 206 91 44 230 216 156 138 241 249
301 308 310 312 326 337 282 248 165 157 152 129 139 263 6 91 202 224 266 252 217 157 203 188 203 195 202 178 190 185 179 122 141 161 161 180 192 59 324 12 65 204 199 163 123 98 208
287 288 299 311 303 307 279 240 162 161 162 97 125 163 313 347 321 293 215 225 215 215 212 176 167 129 138 197 232 178 161 203 161 136 130 115 173 194 196 178 135 192 205 182 151 153 228
277 284 286 297 299 301 300 164 163 163 177 87 164 191 156 191 257 257 318 326 192 196 220 168 289 228 178 174 176 194 132 140 36 177 143 145 206 186 265 237 237 215 197 195 198 219 206
265 271 280 287 296 297 311 188 171 163 159 13 142 148 170 182 166 354 201 239 242 145 139 223 217 263 213 195 194 191 143 185 184 140 159 174 201 122 285 283 221 246 230 238 229 236 259
285 253 253 263 282 306 294 185 170 169 143 93 284 12 183 148 155 146 199 233 301 81 243 279 277 122 226 243 68 39 70 84 138 148 164 153 141 111 259 360 326 284 215 223 189 50 166
276 250 242 252 256 271 307 222 180 178 174 122 173 196 139 211 204 190 179 199 264 182 240 3 2 198 165 118 108 60 49 62 67 44 109 145 137 134 231 32 239 241 177 166 151 226 210
264 256 240 246 249 238 255 258 205 193 184 117 167 164 160 195 202 199 206 177 139 93 158 107 2 347 302 34 65 48 358 35 46 27 27 28 137 152 183 209 311 302 205 178 162 256 194
274 275 267 245 260 228 222 243 250 202 192 92 157 163 152 175 210 77 151 166 162 129 118 148 199 325 327 86 139 186 194 186 208 122 2 83 61 142 137 208 244 240 185 137 121 298 177
264 271 264 257 267 234 216 222 230 208 180 124 71 6 135 161 179 306 168 186 160 146 100 118 154 150 56 201 208 203 235 158 182 176 171 138 133 209 198 224 282 189 148 163 88 247 151
268 270 265 261 250 230 223 223 224 213 173 131 91 4 120 105 86 39 335 131 139 169 153 136 117 163 69 183 203 219 200 217 151 140 176 168 150 182 149 202 264 143 79 172 190 66 130
257 255 252 247 241 235 231 223 215 210 164 125 108 48 66 70 85 22 56 46 12 356 109 186 8 138 149 162 199 168 201 154 133 227 217 197 184 176 188 207 140 175 98 129 144 140 157